METEOR 2-11 DEB, 40708

Orbit data source: Space-Track

METEOR 2-11 DEB, 40708 is space debris in LEO originally from a launch on Thu, 05 Jul 1984 UTC launched from the Plesetsk Missile And Space Complex (PKMTR). Debris objects in space refer to the collection of defunct objects orbiting the Earth. Examples of debris include non-operational satellites, rocket bodies, and fragments generated from explosions, collisions, or faulty payload assembly.

Loading next visibility...
Identifier
40708, 1984-072K
Orbit
LEO
Country
Flag of CISCIS
Related business
Manufacturer
Unknown
Mission
Spacecraft
Bus & Motor
Unknown
Mass
Unknown
Launch date (UTC)
1984-07-05 (42 years ago)
Launch vehicle
Unknown
Launch site
Plesetsk Missile And Space Complex (PKMTR)
Object type
Payload
Rocket body
Debris
Shape & HBR
Unknown shape, 0.1 m
Radar Cross Section
Medium (>0.1 m² and <1 m²)

Expand to show TLE details & history
Last TLE update: 3 weeks ago

TLE from 3 weeks ago
0 METEOR 2-11 DEB
1 40708U 84072K   26190.69524197  .00001885  00000-0  13037-2 0  9999
2 40708  82.5129 346.7684 0027406 231.2529 128.6190 13.98445714577180
Epoch: 2026-07-09T16:41Z
TLE epoch observation values (Epoch: 2026-07-09T16:41:08.906Z)
Latitude
0.00002°
Longitude
168.84782°
Altitude
914.587 km
Speed
7.388 km/s
True Right ascension
23h 07m 04s
True Declination
0° 00' 00"
Sunlit
Object was in full shadow at epoch
Visualization orbit readout
Latitude
Unknown
Longitude
Unknown
Altitude
Unknown
Speed
Unknown
Apparent Right ascension
Unknown
Apparent Declination
Unknown
Sunlit
N/A
Visualization observer readout
Local Sidereal Time
06:25:22
Azimuth
Unknown
Elevation
Unknown
Doppler factor
Unknown
Orbital elements
Apogee altitude
916.252 km
Perigee altitude
876.379 km
Semi-major axis
7,274.453 km
Eccentricity
0.00274
Inclination
82.5129°
RAAN
346.7684°
Arg. of periapsis
231.2529°
True anomaly
128.86385°
Mean anomaly
128.619°
Eccentric anomaly
128.74148°
Mean motion
3.49818 °/min
Orbital period
102.91 mins
BSTAR
0.0013037
Loading maneuver chart data...
Computing Atmospheric mass density...
Loading historical data...
Loading historical data...
Loading historical data...
Loading historical data...
Loading historical data...
Loading historical data...
Loading historical data...

Documentation

Showing up to 5 results
|